(178485) = 1999 TV61

Discovered at Socorro on 1999-10-15 by LINEAR.

Orbit

Orbit type: Main Belt

Note: WebGL enabled browser required.

epoch2024-03-31.0
epoch JD2460400.5
perihelion date2020-12-26.35668
perihelion JD2459209.85668
argument of perihelion (°)117.15966
ascending node (°)206.15148
inclination (°)9.92434
eccentricity0.1295000
perihelion distance (AU)2.7059298
Tisserand w.r.t. Jupiter3.2
ΔV w.r.t. Earth (km/sec)10.7
semimajor axis (AU)3.1084776
mean anomaly (°)214.12329
mean daily motion (°/day)0.17983830
aphelion distance (AU)3.511
period (years)5.48
P-vector [x]0.79602377
P-vector [y]-0.59819937
P-vector [z]-0.09221529
Q-vector [x]0.60047981
Q-vector [y]0.76138980
Q-vector [z]0.24435541
absolute magnitude15.67
phase slope0.15
uncertainty0
referenceMPEC 2024-E123
observations used571
oppositions18
arc length (days)16943
first opposition used1977
last opposition used2024
residual rms (arc-secs)0.72
perturbers coarse indicatorM-v
perturbers precise indicator003Ek
first observation date used1977-10-17.0
last observation date used2024-03-07.0
computer nameMPCLINUX
JD of orbit computation2456877.945558
perihelion JD uncertainty (days)1.4767E-04
argument of perihelion uncertainty (°)3.2442E-05
ascending node uncertainty (°)1.6464E-05
inclination uncertainty (°)5.1357E-06
eccentricity uncertainty 3.0390E-08
perihelion distance uncertainty (AU)9.7339E-08
Minimum Orbit Intersection Distances (in AU)
for orbit epoch: 2460400.5, reference: E2024-FB1
Mercury2.30592
Venus1.99907
Earth1.71257
Mars1.36849
Jupiter1.91503
Saturn5.71675
Uranus14.9926
Neptune26.7113

Observations

577 total observations over interval: 1977 10 17.27552 – 2024 03 07.355203
These data are available for download (format description).

Date (UT) J2000 RA J2000 Dec Magn Location Ref
1977 10 17.27552 01 21 53.73 +09 54 19.7   675 – Palomar Mountain MPS 37492
1977 10 17.34236 01 21 50.67 +09 53 48.4   675 – Palomar Mountain MPS 37492
1993 09 18.26638 21 27 10.50 -02 43 14.0   691 – Steward Observatory, Kitt Peak-Spacewatch MPS 37492
1993 09 18.29992 21 27 09.79 -02 43 28.0 20.1 V 691 – Steward Observatory, Kitt Peak-Spacewatch MPS 37492
1993 09 18.33345 21 27 09.49 -02 43 41.6   691 – Steward Observatory, Kitt Peak-Spacewatch MPS 37492
1999 10 06.24731 01 25 42.93 +10 54 41.8 19.1   704 – Lincoln Laboratory ETS, New Mexico MPS 15267
1999 10 06.26052 01 25 42.32 +10 54 36.2 19.5   704 – Lincoln Laboratory ETS, New Mexico MPS 15267
1999 10 06.27371 01 25 41.80 +10 54 29.5 19.0   704 – Lincoln Laboratory ETS, New Mexico MPS 15267
1999 10 06.28689 01 25 41.22 +10 54 24.3 19.7   704 – Lincoln Laboratory ETS, New Mexico MPS 15267
1999 10 06.30034 01 25 40.65 +10 54 18.4 19.5   704 – Lincoln Laboratory ETS, New Mexico MPS 15267
1999 10 15.40975 01 19 14.79 +09 43 38.7 19.3   704 – Lincoln Laboratory ETS, New Mexico MPS 13717
1999 10 15.42524 01 19 14.18 +09 43 30.8 19.7   704 – Lincoln Laboratory ETS, New Mexico MPS 13717
1999 10 15.44054 01 19 13.56 +09 43 23.2 19.4   704 – Lincoln Laboratory ETS, New Mexico MPS 13717
1999 10 15.47125 01 19 12.11 +09 43 07.7 19.9   704 – Lincoln Laboratory ETS, New Mexico MPS 13717
1999 10 16.24806 01 18 39.39 +09 37 01.7 19.5   704 – Lincoln Laboratory ETS, New Mexico MPS 13717
1999 10 16.26835 01 18 38.50 +09 36 51.8 19.6   704 – Lincoln Laboratory ETS, New Mexico MPS 13717
1999 10 16.28520 01 18 37.80 +09 36 44.3 19.9   704 – Lincoln Laboratory ETS, New Mexico MPS 13717
1999 10 16.30083 01 18 37.06 +09 36 35.9 19.3   704 – Lincoln Laboratory ETS, New Mexico MPS 13717
1999 10 16.31941 01 18 36.18 +09 36 27.9 19.6   704 – Lincoln Laboratory ETS, New Mexico MPS 13717
1999 11 09.14066 01 04 13.95 +06 43 41.3 19.7   704 – Lincoln Laboratory ETS, New Mexico MPS 15267
1999 11 09.15502 01 04 13.47 +06 43 35.6 19.9   704 – Lincoln Laboratory ETS, New Mexico MPS 15267
1999 11 09.18379 01 04 12.76 +06 43 26.2 20.1   704 – Lincoln Laboratory ETS, New Mexico MPS 15267
1999 11 09.19818 01 04 12.38 +06 43 20.3 20.0   704 – Lincoln Laboratory ETS, New Mexico MPS 15268
1999 11 30.07930 00 59 42.47 +05 11 59.9 20.7 V 691 – Steward Observatory, Kitt Peak-Spacewatch MPS 15268
1999 11 30.10063 00 59 42.46 +05 11 56.6 20.9 V 691 – Steward Observatory, Kitt Peak-Spacewatch MPS 15268
1999 11 30.12135 00 59 42.44 +05 11 53.5 20.9 V 691 – Steward Observatory, Kitt Peak-Spacewatch MPS 15268
1999 12 08.07792 01 00 29.51 +04 56 36.1 21.3 V 691 – Steward Observatory, Kitt Peak-Spacewatch MPS 15268
1999 12 08.09914 01 00 29.73 +04 56 34.3 21.9 V 691 – Steward Observatory, Kitt Peak-Spacewatch MPS 15268
1999 12 08.12033 01 00 29.90 +04 56 32.9 21.4 V 691 – Steward Observatory, Kitt Peak-Spacewatch MPS 15268
2003 05 27.27395 15 03 18.27 -10 34 35.3 20.6 V 691 – Steward Observatory, Kitt Peak-Spacewatch MPS 79602
2003 05 27.30221 15 03 17.08 -10 34 27.1 20.7 V 691 – Steward Observatory, Kitt Peak-Spacewatch MPS 79602
2003 05 27.33160 15 03 15.83 -10 34 18.5 21.1 V 691 – Steward Observatory, Kitt Peak-Spacewatch MPS 79602
2004 08 14.41405 21 58 59.89 +01 52 04.2 19.0   644 – Palomar Mountain/NEAT MPS 111758
2004 08 14.43549 21 58 58.95 +01 51 58.2 18.9   644 – Palomar Mountain/NEAT MPS 111758
2004 08 14.45793 21 58 58.00 +01 51 51.4 18.9   644 – Palomar Mountain/NEAT MPS 111758
2004 08 26.303497 21 50 43.915 +00 42 40.96 19.39 V 645 – Apache Point-Sloan Digital Sky Survey MPS 390149
2004 08 26.306969 21 50 43.766 +00 42 39.59 20.17   645 – Apache Point-Sloan Digital Sky Survey MPS 390149
2004 09 08.17901 21 42 42.16 -00 47 27.8 19.6   704 – Lincoln Laboratory ETS, New Mexico MPS 112515
2004 09 08.19025 21 42 41.67 -00 47 32.5 20.4   704 – Lincoln Laboratory ETS, New Mexico MPS 112515
2004 09 08.20165 21 42 41.31 -00 47 38.0 19.3   704 – Lincoln Laboratory ETS, New Mexico MPS 112515
2004 09 08.21341 21 42 40.86 -00 47 44.0 19.6   704 – Lincoln Laboratory ETS, New Mexico MPS 112515
2004 09 08.22461 21 42 40.52 -00 47 48.2 19.2   704 – Lincoln Laboratory ETS, New Mexico MPS 112515
2004 09 12.267677 21 40 36.701 -01 17 12.35 19.89 V 645 – Apache Point-Sloan Digital Sky Survey MPS 390149
2004 09 12.271149 21 40 36.603 -01 17 13.74 20.88   645 – Apache Point-Sloan Digital Sky Survey MPS 390149
2004 09 13.17702 21 40 11.47 -01 23 46.8 19.4   704 – Lincoln Laboratory ETS, New Mexico MPS 112533
2004 09 13.18876 21 40 11.15 -01 23 53.8 20.3   704 – Lincoln Laboratory ETS, New Mexico MPS 112533
2004 09 13.20103 21 40 10.74 -01 23 57.5 19.7   704 – Lincoln Laboratory ETS, New Mexico MPS 112533
2004 09 13.21280 21 40 10.43 -01 24 03.6 19.7   704 – Lincoln Laboratory ETS, New Mexico MPS 112533
2004 09 13.22467 21 40 10.08 -01 24 08.5 19.8   704 – Lincoln Laboratory ETS, New Mexico MPS 112533
2004 09 18.18834 21 38 08.39 -01 59 41.3 19.4   704 – Lincoln Laboratory ETS, New Mexico MPS 114070
2004 09 18.20024 21 38 08.07 -01 59 46.4 19.9   704 – Lincoln Laboratory ETS, New Mexico MPS 114070
2004 09 18.21205 21 38 07.83 -01 59 50.9 19.8   704 – Lincoln Laboratory ETS, New Mexico MPS 114070
2004 09 18.22386 21 38 07.62 -01 59 56.7 19.9   704 – Lincoln Laboratory ETS, New Mexico MPS 114070
2005 11 06.44858 04 44 35.67 +13 49 56.6 20.1 V 691 – Steward Observatory, Kitt Peak-Spacewatch MPS 149143
2005 11 06.46627 04 44 34.99 +13 49 51.3 20.3 V 691 – Steward Observatory, Kitt Peak-Spacewatch MPS 149143
2005 11 06.48396 04 44 34.30 +13 49 46.4 20.4 V 691 – Steward Observatory, Kitt Peak-Spacewatch MPS 149143
2005 11 25.32634 04 30 26.31 +12 25 19.1 19.6 V 703 – Catalina Sky Survey MPS 151787
2005 11 25.33663 04 30 25.92 +12 25 14.1 20.0 V 703 – Catalina Sky Survey MPS 151787
2005 11 25.34686 04 30 25.27 +12 25 12.7 19.7 V 703 – Catalina Sky Survey MPS 151787
2005 11 25.35706 04 30 24.91 +12 25 10.2 19.4 V 703 – Catalina Sky Survey MPS 151787
2008 02 28.42961 13 11 30.72 -11 40 42.6 21.0 V 691 – Steward Observatory, Kitt Peak-Spacewatch MPS 239296
2008 02 28.44723 13 11 30.40 -11 40 38.3 20.5 V 691 – Steward Observatory, Kitt Peak-Spacewatch MPS 239296
2008 02 28.46488 13 11 29.99 -11 40 36.0 20.6 V 691 – Steward Observatory, Kitt Peak-Spacewatch MPS 239296
2008 03 11.37587 13 06 33.33 -10 54 43.6 20.5 V 691 – Steward Observatory, Kitt Peak-Spacewatch MPS 241948
2008 03 11.39358 13 06 32.75 -10 54 38.7 20.9 V 691 – Steward Observatory, Kitt Peak-Spacewatch MPS 241948
2008 03 11.40892 13 06 32.25 -10 54 34.3 20.7 V 691 – Steward Observatory, Kitt Peak-Spacewatch MPS 241948
2008 04 06.30725 12 49 55.30 -08 20 09.1 19.8   704 – Lincoln Laboratory ETS, New Mexico MPS 246635
2008 04 06.31876 12 49 54.83 -08 20 03.0 20.1   704 – Lincoln Laboratory ETS, New Mexico MPS 246635
2008 04 06.34186 12 49 53.81 -08 19 53.6 20.3   704 – Lincoln Laboratory ETS, New Mexico MPS 246635
2008 04 06.35337 12 49 53.27 -08 19 49.3 20.2   704 – Lincoln Laboratory ETS, New Mexico MPS 246635
2008 04 13.29794 12 45 05.79 -07 32 21.8 20.2 V G96 – Mt. Lemmon Survey MPS 247565
2008 04 13.30443 12 45 05.54 -07 32 18.7 20.3 V G96 – Mt. Lemmon Survey MPS 247565
2008 04 13.31094 12 45 05.25 -07 32 16.1 20.1 V G96 – Mt. Lemmon Survey MPS 247565
2008 04 13.31744 12 45 05.00 -07 32 13.5 20.1 V G96 – Mt. Lemmon Survey MPS 247565
2008 06 01.18362 12 28 36.19 -03 39 39.9 21.1 V G96 – Mt. Lemmon Survey MPS 251335
2008 06 01.19203 12 28 36.19 -03 39 38.9 21.4 V G96 – Mt. Lemmon Survey MPS 251335
2008 06 01.20037 12 28 36.26 -03 39 38.1 21.1 V G96 – Mt. Lemmon Survey MPS 251335
2008 06 01.20868 12 28 36.26 -03 39 37.3 21.0 V G96 – Mt. Lemmon Survey MPS 251335
2009 06 27.435888 18 27 36.812 -08 44 41.27 19.19 r F51 – Pan-STARRS 1, Haleakala MPS 292492
2009 06 27.447411 18 27 36.243 -08 44 40.83 19.34 r F51 – Pan-STARRS 1, Haleakala MPS 292492
2010 06 18.43963 01 05 12.76 +11 28 15.4 21.7 V G96 – Mt. Lemmon Survey MPS 333316
2010 06 18.44484 01 05 13.02 +11 28 17.4 20.4 V G96 – Mt. Lemmon Survey MPS 333316
2010 06 18.45012 01 05 13.45 +11 28 19.8 20.8 V G96 – Mt. Lemmon Survey MPS 333316
2010 06 18.45535 01 05 13.81 +11 28 21.9 20.8 V G96 – Mt. Lemmon Survey MPS 333316
